"Pseudo-MPEC" for P10OVOB

Created 2019 Jun 15 19:08:58 UT using Find_Orb

Click here for an explanation of pseudo-MPECs

 
 Astrometry: 
     P10OVOB  C2019 05 29h*L_%EsF3yG5MVligc(Ocp9vNt%DSm(%ch_b;+O:,dAb0e*MmHW0F52
     P10OVOB  C2019 05 29rJ,FD1ERXMWAop^d3$.xKbeU6XWGhOqNOo9NGqYlKOP6+d:n:?$YF52
     P10OVOB  C2019 05 29Nnk_;Yhfaq\F)qbMlncwXXktLdS,lGwQ=1s)LkeM7Ix9efW1*UCbF52
     P10OVOB  C2019 05 29h?Kt1rL=i76sc'8jraieM_R^J69nRnf@37oxcu;-2,ugrf`4/KanF52
     P10OVOB  C2019 06 02WE?G9gyaS@tDiLadBnvNNK;G7U[F[vo8uh`hU9Ob3#`*GfLDhokYF52
     P10OVOB  C2019 06 02%Z`VOx,q8tR$Be[(Be)b7y%kDm;iL@J`Z5Xf`q;f#?.BT6d@@M1sF52
     P10OVOB  C2019 06 02,#=S-Y^1@kAstrometryUvXmM\JlkG'1t!8,uDclw[y1?dQ]V,3hF52
     P10OVOB  C2019 06 07[;_+a*Ra1\g0h/+.`fbq_LHB(//pej1$vL.(4tpa18#tCeZ/MRnTF51
     P10OVOB  C2019 06 07j\cy-ODrStEY6W)whuTbr?v[mNOG)s]FLjOp=]jbyGu5$XfFStbKF51
     P10OVOB  C2019 06 079^,`g5aJbEphi9,]]n\*CKb!k.TeJY$/??v.FpKp_;px!-[pi@9nF51
     P10OVOB  C2019 06 07\o_E#Jo])$VHTeN[TKtIuLJ)btL(4A]c`+YC4]\8?dlqOAm!lvcfF51
     P10OVOB  C2019 06 09HETCd7JMx/`uCDOY6nC\ITx]!SOwqyJCZbGb:VH5SF?26g/s6K'hF51
     P10OVOB  C2019 06 09/(B8Y9.2redacted;/Y/juV,5f.$?UC+ke;!fEjO'fh:%PM4/\X^F51
     P10OVOB  C2019 06 10ms3MR-(O8M:SFtk`#MLEg+vns_+RDxJq1wIrYS1-mSclxIp%O;mZF51
     P10OVOB  C2019 06 10k;.QF:ODdF0bJ(A#m(pf5ZXh]Nm3D:G5VclickU@oo!41v@mqw;TF51
     P10OVOB  C2019 06 10m'i'_W?h%,f?-!ucBx2kyF-dv'1n$LL-k-G#L5(XUG@0w]RuoxNpF51
     P10OVOB  C2019 06 10+lFgWnk^p=kK8?Q'Gd\H*mEgyt6w`]n-JLUodLgUh8H-CO.-20kYF51
     P10OVOB KC2019 06 11VXXPo0-/m!q'rfkherexS!fEIMix5PdEBforCUV`IfmYYnOPPGuyH21
     P10OVOB KC2019 06 11Jv?oEl8x[ib'1`\eBi(iHa^wkhyacx1:[_ds7Fb'M`=9:\^)*EA[H21
     P10OVOB KC2019 06 12j/4QMg=g_xIqI4*aXHT4b6rEtqgVaPjl#1/Dp-KtYiwm-(T?PcSlH21
     P10OVOB KC2019 06 12y%kNPX*kcN]f:G10T\*3%explanation(Z2d5+nR8`+=QYmd=^MFH21

Station data:
(F51) Pan-STARRS 1, Haleakala  (N20.707235 W156.255910)  US/Hawaii.
   Observers N. Primak, A. Schultz, S. Watters, J. Thiel, T. Goggia. Measurer
   PS1 Science Consortium. 1.8-m Ritchey-Chrétien + CCD.
(F52) Pan-STARRS 2, Haleakala  (N20.707384 W156.255910)  US/Hawaii. 1.8-m
   Ritchey-Chrétien + CCD.
(H21) Astronomical Research Observatory, Westfield  (N39.483057 W87.968270)
   US/Illinois. 0.76-m f/3.0 astrograph + CCD.

Orbital elements:  P10OVOB
   Perihelion 2018 Jun 6.161886 +/- 0.601 TT =  3:53:06 (JD 2458275.661886)
Epoch 2019 Jun 12.0 TT = JDT 2458646.5   Earth MOID: 0.7480   AutoNEOCP
M 143.44729301 +/- 0.27             (J2000 ecliptic)
n   0.38681917 +/- 0.000181         Peri.  245.80815 +/- 0.18
a   1.86550916 +/- 0.000583         Node   219.13267 +/- 0.030
e   0.1038237 +/- 0.000499          Incl.   20.08804 +/- 0.026
P   2.55/930.65d           H 19.3   G  0.15   U  7.0  
q 1.67182498 +/- 0.000444    Q 2.05919334 +/- 0.00156
From 21 observations 2019 May 29-June 12; mean residual 0".15
Residuals in arcseconds: 
190529 F52  .02-  .18-    190607 F51  .02-  .25+    190610 F51  .02-  .07-    
190529 F52  .03-  .02-    190607 F51  .17-  .02+    190610 F51  .00   .09-    
190529 F52  .09+  .17+    190607 F51  .05-  .16-    190610 F51  .05-  .10-    
190529 F52  .08-  .00     190607 F51  .02+  .00     190611 H21  .03-  .07-    
190602 F52  .07+  .06+    190609 F51  .07-  .00     190611 H21  .58+  .04-    
190602 F52  .15+  .18-    190609 F51  .01-  .05+    190612 H21  .15+  .15+    
190602 F52  .12-  .17+    190610 F51  .02+  .10-    190612 H21  .48-  .08+    

Ephemerides (geocentric):
Date (UTC) HH   RA              Dec         delta   r     elong  mag " sig PA
---- -- -- --  -------------   -----------  ------ ------ -----  --- ---- ---
2019 06 15 19  16 25 46.055   +01 19 53.47  1.0845 2.0299 150.2 21.8 .451  14
2019 06 15 20  16 25 43.558   +01 20 12.99  1.0847 2.0299 150.2 21.8 .455  14
2019 06 15 21  16 25 41.063   +01 20 32.46  1.0849 2.0299 150.2 21.8 .460  14
2019 06 15 22  16 25 38.571   +01 20 51.90  1.0851 2.0299 150.1 21.8 .465  14
2019 06 15 23  16 25 36.081   +01 21 11.29  1.0853 2.0300 150.1 21.8 .469  14
2019 06 16 00  16 25 33.594   +01 21 30.64  1.0855 2.0300 150.1 21.8 .474  14
2019 06 16 01  16 25 31.109   +01 21 49.95  1.0857 2.0300 150.0 21.8 .479  14
2019 06 16 02  16 25 28.626   +01 22 09.22  1.0859 2.0301 150.0 21.8 .483  13
2019 06 16 03  16 25 26.146   +01 22 28.45  1.0861 2.0301 149.9 21.8 .488  13
2019 06 16 04  16 25 23.668   +01 22 47.64  1.0863 2.0301 149.9 21.8 .493  13
2019 06 16 05  16 25 21.193   +01 23 06.78  1.0865 2.0301 149.9 21.9 .498  13
2019 06 16 06  16 25 18.720   +01 23 25.88  1.0867 2.0302 149.8 21.9 .503  13
2019 06 16 07  16 25 16.250   +01 23 44.95  1.0869 2.0302 149.8 21.9 .508  13
2019 06 16 08  16 25 13.782   +01 24 03.97  1.0871 2.0302 149.8 21.9 .513  13
2019 06 16 09  16 25 11.316   +01 24 22.94  1.0873 2.0302 149.7 21.9 .517  13
2019 06 16 10  16 25 08.853   +01 24 41.88  1.0875 2.0303 149.7 21.9 .522  13
2019 06 16 11  16 25 06.392   +01 25 00.78  1.0877 2.0303 149.7 21.9 .527  12
2019 06 16 12  16 25 03.934   +01 25 19.63  1.0879 2.0303 149.6 21.9 .532  12
2019 06 16 13  16 25 01.478   +01 25 38.45  1.0881 2.0303 149.6 21.9 .537  12
2019 06 16 14  16 24 59.025   +01 25 57.22  1.0883 2.0304 149.6 21.9 .542  12
2019 06 16 15  16 24 56.574   +01 26 15.95  1.0885 2.0304 149.5 21.9 .547  12
2019 06 16 16  16 24 54.126   +01 26 34.64  1.0887 2.0304 149.5 21.9 .552  12
2019 06 16 17  16 24 51.680   +01 26 53.29  1.0889 2.0304 149.4 21.9 .557  12
2019 06 16 18  16 24 49.237   +01 27 11.89  1.0891 2.0305 149.4 21.9 .562  12
2019 06 16 19  16 24 46.796   +01 27 30.46  1.0893 2.0305 149.4 21.9 .568  12
2019 06 16 20  16 24 44.357   +01 27 48.98  1.0895 2.0305 149.3 21.9 .573  12
2019 06 16 21  16 24 41.921   +01 28 07.46  1.0897 2.0306 149.3 21.9 .578  11
2019 06 16 22  16 24 39.488   +01 28 25.90  1.0899 2.0306 149.3 21.9 .583  11
2019 06 16 23  16 24 37.057   +01 28 44.30  1.0901 2.0306 149.2 21.9 .588  11
2019 06 17 00  16 24 34.629   +01 29 02.66  1.0903 2.0306 149.2 21.9 .593  11
2019 06 17 01  16 24 32.203   +01 29 20.98  1.0905 2.0307 149.2 21.9 .599  11
2019 06 17 02  16 24 29.779   +01 29 39.25  1.0907 2.0307 149.1 21.9 .604  11
2019 06 17 03  16 24 27.358   +01 29 57.49  1.0909 2.0307 149.1 21.9 .609  11
2019 06 17 04  16 24 24.940   +01 30 15.68  1.0911 2.0307 149.1 21.9 .615  11
2019 06 17 05  16 24 22.524   +01 30 33.83  1.0913 2.0308 149.0 21.9 .620  11
2019 06 17 06  16 24 20.111   +01 30 51.94  1.0915 2.0308 149.0 21.9 .625  11
2019 06 17 07  16 24 17.700   +01 31 10.01  1.0917 2.0308 148.9 21.9 .631  11
2019 06 17 08  16 24 15.292   +01 31 28.04  1.0919 2.0308 148.9 21.9 .636  10
2019 06 17 09  16 24 12.886   +01 31 46.03  1.0922 2.0309 148.9 21.9 .641  10
2019 06 17 10  16 24 10.483   +01 32 03.97  1.0924 2.0309 148.8 21.9 .647  10
2019 06 17 11  16 24 08.083   +01 32 21.87  1.0926 2.0309 148.8 21.9 .652  10
2019 06 17 12  16 24 05.685   +01 32 39.74  1.0928 2.0309 148.8 21.9 .658  10
2019 06 17 13  16 24 03.289   +01 32 57.56  1.0930 2.0310 148.7 21.9 .663  10
2019 06 17 14  16 24 00.897   +01 33 15.34  1.0932 2.0310 148.7 21.9 .669  10
2019 06 17 15  16 23 58.506   +01 33 33.07  1.0934 2.0310 148.7 21.9 .674  10
2019 06 17 16  16 23 56.119   +01 33 50.77  1.0936 2.0310 148.6 21.9 .680  10
2019 06 17 17  16 23 53.733   +01 34 08.43  1.0938 2.0311 148.6 21.9 .685  10
2019 06 17 18  16 23 51.351   +01 34 26.04  1.0940 2.0311 148.5 21.9 .691   9